Wind_Speed
11 10 9 8 7 7 7 7 8 9 10 12 12 13 15 15 18 19 21 24 27 30 29 29 27 28 31 34 33 33 37 40 40 36 31 15 15 18 15 16 5 8 2 6 13
13 11 10 9 9 8 8 8 9 10 11 11 11 11 11 11 12 12 14 15 19 23 22 24 27 29 31 32 33 36 44 44 41 32 32 25 25 20 26 20 10 5 5 13 15
13 13 13 12 12 12 11 11 11 12 12 12 12 12 10 11 10 10 10 9 12 16 12 17 22 26 28 28 32 38 45 38 35 32 33 31 36 30 31 29 19 7 7 10 10
14 14 14 14 13 13 14 14 14 14 13 12 11 11 9 8 5 5 8 6 7 5 4 8 15 21 25 27 29 33 38 38 38 37 35 37 36 42 37 36 27 18 10 7 9
15 14 13 14 14 14 14 14 15 15 15 14 13 12 11 9 8 8 9 9 9 7 7 7 9 16 21 25 28 30 32 33 33 34 35 37 40 40 47 38 36 31 26 15 11
17 16 14 14 13 12 14 15 16 16 17 16 14 12 11 9 7 7 6 4 5 6 6 8 11 14 16 21 23 27 30 34 33 33 34 34 37 36 46 44 40 37 34 26 21
21 18 16 14 12 12 11 12 14 15 15 14 14 11 8 8 8 7 1 6 9 8 7 7 7 11 15 15 20 25 29 30 29 28 32 30 39 44 41 42 42 38 37 33 27
21 21 18 15 12 11 11 11 12 14 14 13 10 8 5 9 8 2 1 12 10 5 5 3 2 1 2 7 15 21 22 22 11 5 14 22 49 37 34 38 41 48 40 36 30
21 20 20 17 14 11 10 11 10 11 10 11 6 4 8 7 2 1 7 11 6 6 4 2 1 2 5 9 8 5 8 15 9 1 6 21 36 29 28 32 35 45 51 47 40
21 21 19 18 15 13 11 9 9 9 8 2 2 10 11 8 4 4 10 8 4 3 4 1 4 4 6 11 11 15 19 17 18 11 14 19 31 29 29 31 33 35 42 48 55
24 20 18 16 14 13 11 9 8 7 8 8 8 9 16 8 4 5 7 5 7 5 5 5 4 5 3 7 9 14 14 15 12 9 18 23 34 34 29 30 31 36 38 41 42
24 20 15 14 12 11 11 10 6 8 1 4 4 10 13 8 7 4 5 4 7 8 3 6 9 8 6 6 11 12 17 19 19 18 20 25 37 37 34 35 35 36 39 39 42
25 21 15 12 10 9 9 10 9 6 5 11 17 14 6 6 7 6 2 3 5 6 8 5 8 6 4 8 12 15 19 23 27 30 26 31 45 37 36 37 37 37 38 41 40
26 22 15 8 8 9 8 9 8 4 5 7 5 7 9 6 3 4 6 4 6 8 8 3 10 12 9 9 13 17 18 24 28 27 21 24 24 42 38 38 35 35 36 35 42
25 20 12 8 7 4 5 7 4 5 4 3 5 3 2 3 8 7 5 11 8 9 12 12 11 7 7 7 7 13 17 24 27 29 28 26 17 51 34 41 41 35 31 28 30
22 18 13 8 4 4 4 2 2 3 2 2 4 6 10 7 8 9 10 10 16 19 19 20 12 7 8 10 10 16 21 27 22 20 7 26 21 50 41 40 36 27 23 24 26
21 17 12 9 6 5 2 0 2 5 4 3 6 8 9 5 4 1 4 7 15 6 5 9 9 8 11 11 13 15 19 7 5 3 5 7 12 36 23 26 26 31 33 32 28
19 17 14 10 8 5 3 1 4 4 4 11 15 10 9 5 6 6 3 1 4 6 7 3 6 14 14 12 21 23 19 5 5 4 10 31 10 26 21 17 21 22 25 30 35
17 15 13 11 10 4 1 3 4 5 9 7 13 5 6 9 11 15 9 7 7 10 8 6 6 9 17 23 15 14 15 20 21 24 11 14 23 29 24 9 15 22 21 23 25
14 12 10 9 7 3 4 5 4 3 5 7 9 7 11 14 13 15 11 7 8 6 9 11 20 18 12 11 18 25 26 13 11 4 7 10 15 23 18 22 16 20 25 23 24
12 11 10 5 3 2 2 3 5 6 10 4 10 11 11 14 16 17 9 12 9 13 16 17 16 16 28 28 25 20 21 21 18 15 4 8 14 23 16 18 25 27 23 25 25
14 12 13 10 6 5 4 8 11 16 10 9 9 10 11 13 12 13 9 7 10 15 19 16 14 21 31 22 12 17 21 19 16 8 14 18 37 37 33 27 22 24 30 30 31
14 13 14 13 9 8 9 12 11 7 10 11 11 14 17 16 13 7 10 10 17 18 11 21 7 13 16 3 2 10 14 18 23 20 19 9 31 17 17 31 32 29 26 33 36
18 13 14 14 14 14 15 9 8 9 12 11 14 17 18 21 21 16 19 20 18 19 24 22 19 15 16 23 27 35 35 33 29 17 22 33 48 47 44 42 32 27 29 30 33
19 14 16 13 12 14 16 13 13 14 12 15 14 13 14 18 23 25 20 20 22 23 17 14 21 24 30 27 27 28 27 25 27 32 30 41 44 41 38 34 31 30 30 25 25
20 18 17 16 12 13 14 16 16 19 18 21 18 17 22 23 21 31 26 21 22 18 17 16 21 28 35 29 24 33 32 24 24 23 29 34 41 30 33 30 31 30 33 26 26
25 23 19 17 16 18 15 14 17 19 15 14 21 26 25 23 26 25 24 24 27 29 27 30 30 21 23 22 27 18 6 8 16 15 17 17 25 26 28 27 28 28 25 25 23
Wind_Direction
355 353 349 342 335 325 314 306 298 288 282 282 280 275 272 269 266 263 258 254 252 253 248 247 245 239 235 230 230 232 235 236 238 243 248 255 263 241 245 253 229 43 190 193 190
337 334 332 329 323 317 312 307 303 300 296 292 290 285 280 273 272 271 260 257 253 252 248 242 236 235 232 230 227 229 235 239 244 250 253 245 238 257 255 248 216 144 111 190 204
331 325 318 313 310 307 305 302 299 295 292 292 293 291 290 285 281 269 253 238 244 248 242 242 236 233 231 229 227 230 239 243 248 249 251 238 244 243 262 238 236 208 123 149 172
333 323 315 309 304 299 298 299 298 295 292 291 293 296 294 286 283 237 241 248 251 269 270 242 228 220 225 227 229 236 241 246 248 248 250 249 241 242 242 228 248 220 235 148 182
337 329 322 312 301 297 294 292 291 290 290 291 293 294 291 283 262 269 279 280 275 281 267 244 239 231 224 228 231 237 245 244 248 250 251 251 249 249 238 235 250 245 251 242 222
342 336 328 319 313 302 294 289 285 284 287 289 287 285 282 274 257 258 273 315 313 288 264 244 245 245 247 241 241 238 243 247 248 248 252 254 251 248 228 239 243 248 247 249 252
340 337 333 327 318 309 299 292 292 292 287 285 283 280 263 241 237 255 329 355 336 313 294 285 270 249 255 264 259 262 265 261 261 262 259 260 258 242 240 250 247 248 247 253 250
335 332 329 330 324 313 303 296 298 294 296 292 287 271 227 208 225 223 314 12 354 335 302 250 243 131 348 274 275 276 277 291 303 273 272 259 259 254 255 261 253 243 250 253 251
332 329 325 324 323 316 308 305 302 303 301 295 276 214 160 164 197 101 352 346 317 133 140 125 238 273 321 328 337 349 335 330 334 267 275 239 262 267 265 263 256 245 244 250 251
336 327 322 322 321 316 314 309 311 316 308 274 213 163 163 171 140 5 313 329 350 318 176 207 289 300 339 331 309 320 322 315 306 296 289 270 263 263 259 259 254 252 245 245 247
333 327 322 317 318 318 321 316 326 318 308 260 231 195 177 194 193 186 298 35 8 334 246 236 253 276 338 346 334 332 333 334 327 331 299 282 275 267 258 257 257 250 249 249 248
342 341 318 312 314 317 324 323 322 332 356 339 272 207 200 232 266 215 197 59 18 25 275 266 276 247 299 324 335 327 332 328 316 305 297 289 274 270 270 267 269 260 250 252 247
346 341 328 314 310 312 324 328 327 337 76 82 88 85 159 205 105 76 91 71 4 15 6 24 40 39 336 320 325 325 328 323 319 315 299 302 284 280 271 270 269 268 267 258 260
349 342 332 321 318 327 338 337 347 45 87 99 83 76 73 111 68 330 358 290 282 336 329 322 356 337 315 304 313 310 315 315 312 315 308 301 291 286 285 282 276 271 270 273 266
357 356 356 343 344 356 343 351 26 78 69 91 73 21 297 289 325 323 269 289 282 309 301 311 322 309 282 290 304 309 316 316 311 301 291 282 266 280 285 284 281 280 282 277 272
4 5 6 12 8 9 5 88 92 103 82 68 108 358 331 289 315 296 280 256 262 267 281 288 296 272 298 306 310 311 314 317 308 300 257 270 246 280 282 276 283 283 271 268 271
9 14 11 14 13 358 7 38 86 55 343 325 316 345 331 327 246 281 65 238 239 264 261 277 270 268 296 290 310 313 309 324 325 311 240 316 323 264 277 281 273 276 279 270 271
15 17 22 18 9 1 324 130 79 37 348 333 332 299 300 291 283 325 268 74 260 334 337 259 265 276 256 279 302 291 278 234 255 264 285 299 253 267 275 285 268 274 279 277 277
14 12 4 3 353 344 175 130 106 21 332 311 334 302 249 301 317 302 305 274 307 324 348 320 272 266 275 293 281 281 246 282 265 271 272 257 269 284 290 278 291 267 270 280 279
13 12 359 347 357 27 165 131 150 357 345 313 330 312 296 312 320 326 307 255 312 312 320 319 306 308 311 273 275 269 277 260 253 265 241 265 265 253 261 287 279 293 291 290 290
10 14 13 2 42 90 243 285 265 288 308 310 307 300 287 305 311 309 265 267 272 321 319 317 304 296 297 295 299 284 269 255 262 238 234 272 261 273 279 281 282 291 300 300 301
6 358 359 8 12 340 320 313 304 306 288 266 282 287 297 304 302 307 273 223 299 311 315 308 300 294 301 320 291 266 265 252 242 242 237 257 265 267 274 289 288 292 290 298 298
2 357 358 355 344 326 317 321 293 287 278 274 271 277 283 284 294 282 267 260 278 287 296 304 293 304 315 30 302 292 289 250 232 245 244 245 264 274 258 282 291 293 298 304 294
359 356 352 352 340 326 323 323 293 275 290 298 289 276 278 276 267 266 269 281 271 264 284 286 280 264 270 281 297 288 290 281 261 250 259 246 274 279 282 280 292 293 293 293 294
358 349 346 335 327 320 309 302 304 299 290 300 301 280 290 294 292 283 280 287 278 274 268 263 269 291 295 295 312 295 290 288 279 275 262 275 274 284 291 296 285 295 307 296 307
350 349 343 339 330 323 306 295 293 291 289 295 287 276 288 283 283 284 293 291 293 283 289 273 277 297 292 308 315 302 296 288 288 291 283 283 282 301 293 291 291 296 296 284 284
345 343 344 339 332 324 317 301 291 288 295 293 285 294 290 292 287 285 284 282 279 281 281 276 277 273 270 300 313 297 273 270 289 297 305 302 300 296 294 285 282 287 288 288 290
Height
3101 3099 3097 3095 3093 3091 3091 3090 3089 3087 3086 3085 3085 3084 3084 3084 3084 3084 3085 3086 3087 3088 3089 3091 3094 3097 3097 3098 3100 3102 3101 3098 3104 3107 3109 3117 3116 3116 3117 3117 3121 3122 3120 3123 3125
3101 3099 3097 3095 3093 3091 3090 3088 3087 3086 3084 3083 3083 3082 3082 3082 3082 3082 3082 3081 3082 3083 3083 3084 3087 3088 3090 3093 3094 3096 3092 3094 3101 3106 3111 3112 3111 3114 3112 3114 3117 3121 3120 3119 3122
3099 3097 3095 3093 3092 3090 3088 3087 3085 3083 3082 3081 3081 3080 3080 3079 3080 3079 3079 3079 3079 3079 3079 3079 3080 3082 3084 3086 3089 3089 3084 3092 3096 3101 3105 3108 3106 3112 3107 3106 3113 3115 3115 3115 3119
3098 3095 3093 3091 3089 3088 3086 3084 3082 3081 3080 3079 3079 3078 3078 3078 3080 3077 3078 3078 3078 3077 3077 3075 3076 3078 3080 3083 3085 3083 3084 3087 3091 3096 3100 3100 3103 3100 3103 3098 3108 3112 3112 3114 3115
3097 3093 3090 3088 3086 3084 3083 3081 3080 3078 3078 3077 3077 3076 3076 3076 3077 3076 3075 3076 3076 3076 3075 3075 3075 3076 3076 3077 3078 3078 3080 3083 3087 3090 3092 3095 3094 3096 3090 3099 3103 3107 3109 3111 3113
3096 3092 3089 3086 3083 3081 3079 3078 3077 3076 3075 3074 3074 3074 3074 3075 3074 3074 3073 3073 3073 3073 3072 3073 3073 3074 3074 3075 3076 3075 3075 3079 3081 3084 3085 3087 3086 3090 3085 3093 3098 3100 3103 3106 3109
3094 3091 3087 3084 3081 3079 3077 3075 3073 3072 3071 3071 3070 3071 3071 3072 3072 3072 3073 3072 3071 3070 3071 3071 3072 3072 3072 3073 3072 3072 3072 3074 3078 3081 3081 3084 3078 3075 3088 3087 3088 3094 3097 3101 3103
3092 3089 3085 3082 3079 3076 3074 3072 3071 3069 3068 3068 3067 3067 3068 3069 3070 3072 3072 3071 3069 3069 3070 3070 3070 3071 3071 3071 3070 3069 3071 3073 3075 3076 3077 3079 3058 3074 3081 3080 3082 3084 3091 3093 3096
3089 3086 3082 3079 3077 3074 3071 3070 3068 3067 3066 3065 3065 3066 3067 3069 3070 3071 3071 3071 3072 3070 3069 3069 3069 3070 3071 3070 3070 3069 3071 3072 3072 3072 3071 3070 3059 3066 3071 3072 3073 3076 3080 3082 3085
3085 3082 3079 3077 3075 3072 3070 3068 3066 3065 3064 3063 3064 3068 3068 3068 3068 3069 3070 3070 3070 3070 3070 3069 3068 3068 3068 3068 3068 3067 3067 3068 3067 3068 3066 3063 3056 3060 3064 3065 3066 3068 3069 3072 3076
3082 3078 3076 3074 3072 3070 3069 3067 3067 3066 3062 3062 3063 3064 3065 3066 3066 3067 3069 3070 3069 3068 3067 3067 3068 3067 3067 3067 3067 3066 3065 3064 3064 3065 3061 3058 3052 3054 3058 3059 3059 3059 3061 3063 3068
3078 3075 3072 3070 3069 3068 3067 3065 3064 3063 3062 3060 3059 3061 3064 3065 3066 3066 3068 3069 3068 3066 3065 3067 3065 3066 3066 3066 3066 3065 3063 3061 3060 3061 3059 3053 3045 3047 3051 3051 3052 3052 3053 3055 3058
3076 3072 3068 3067 3066 3066 3065 3065 3063 3061 3061 3062 3062 3063 3064 3066 3066 3066 3067 3066 3067 3066 3066 3065 3066 3065 3065 3065 3064 3064 3062 3060 3059 3055 3055 3048 3033 3039 3042 3043 3044 3045 3046 3047 3048
3073 3069 3066 3065 3066 3064 3064 3063 3061 3060 3062 3065 3065 3065 3066 3065 3066 3066 3066 3066 3065 3065 3064 3065 3064 3063 3063 3063 3062 3061 3060 3058 3056 3054 3051 3053 3032 3029 3032 3034 3036 3037 3038 3041 3040
3071 3067 3065 3063 3064 3064 3064 3061 3060 3061 3064 3067 3066 3066 3065 3066 3066 3065 3064 3063 3062 3062 3064 3063 3061 3061 3060 3060 3059 3058 3056 3055 3052 3049 3047 3045 3045 3010 3024 3025 3028 3030 3032 3032 3032
3071 3067 3065 3064 3064 3064 3062 3061 3062 3063 3063 3066 3065 3063 3064 3064 3063 3061 3060 3060 3059 3059 3059 3058 3059 3058 3057 3056 3055 3054 3052 3050 3047 3042 3040 3037 3038 3006 3019 3018 3020 3024 3024 3024 3023
3072 3068 3065 3064 3065 3063 3062 3062 3064 3063 3066 3067 3064 3064 3061 3061 3060 3059 3057 3056 3057 3057 3055 3055 3055 3055 3054 3053 3052 3051 3050 3048 3046 3040 3036 3032 3031 3014 3014 3017 3016 3016 3017 3017 3017
3071 3069 3066 3065 3064 3063 3063 3064 3063 3065 3064 3064 3062 3061 3059 3059 3058 3057 3056 3054 3053 3052 3051 3051 3051 3051 3050 3050 3049 3047 3047 3048 3046 3040 3031 3028 3019 3008 3009 3009 3009 3009 3009 3009 3009
3072 3069 3067 3066 3064 3062 3063 3062 3064 3065 3063 3061 3060 3058 3057 3056 3056 3054 3053 3051 3049 3049 3050 3048 3045 3047 3046 3045 3045 3040 3040 3041 3038 3034 3031 3018 3009 3006 3004 3005 3004 3004 3003 3003 3002
3074 3071 3068 3066 3064 3063 3063 3062 3063 3062 3061 3060 3058 3057 3055 3054 3053 3052 3050 3049 3047 3046 3045 3045 3039 3039 3039 3038 3039 3037 3036 3035 3036 3031 3023 3008 3005 2999 2999 3000 2999 2998 2996 2996 2994
3073 3071 3069 3066 3064 3064 3063 3063 3062 3060 3058 3058 3056 3054 3053 3051 3050 3049 3046 3046 3044 3042 3041 3040 3038 3036 3034 3030 3028 3029 3027 3026 3026 3023 3017 3008 2997 2994 2994 2995 2993 2991 2989 2987 2984
3073 3070 3067 3065 3064 3062 3061 3060 3059 3056 3055 3055 3053 3051 3050 3048 3045 3045 3042 3042 3041 3039 3037 3037 3034 3029 3026 3022 3021 3020 3018 3019 3019 3013 3008 3006 2983 2985 2988 2989 2986 2983 2981 2979 2976
3073 3069 3066 3063 3062 3060 3058 3057 3055 3053 3052 3051 3050 3048 3046 3045 3044 3041 3040 3040 3038 3036 3035 3034 3031 3028 3022 3020 3020 3018 3016 3012 3008 3004 2999 3000 2973 2983 2981 2981 2980 2977 2975 2972 2966
3073 3069 3064 3061 3058 3056 3054 3053 3052 3051 3049 3047 3046 3044 3042 3040 3039 3036 3034 3035 3034 3033 3032 3030 3026 3026 3023 3019 3017 3012 3009 3006 3001 2996 2990 2983 2973 2974 2976 2974 2972 2970 2967 2962 2958
3072 3070 3066 3062 3057 3054 3052 3050 3049 3047 3046 3044 3042 3040 3038 3034 3031 3028 3028 3027 3027 3026 3025 3024 3021 3020 3014 3012 3008 3002 2998 2995 2993 2989 2986 2975 2970 2972 2970 2967 2964 2963 2960 2956 2953
3072 3069 3065 3060 3056 3053 3051 3047 3046 3044 3043 3040 3038 3035 3033 3029 3028 3021 3022 3022 3019 3020 3019 3019 3014 3012 3005 3004 3002 2993 2988 2986 2984 2980 2977 2973 2965 2969 2963 2961 2958 2957 2952 2949 2948
3067 3064 3062 3059 3053 3050 3047 3045 3042 3039 3038 3034 3032 3029 3026 3024 3020 3017 3015 3014 3013 3012 3013 3013 3011 3008 2999 2999 2995 2987 2983 2980 2979 2977 2973 2969 2965 2961 2957 2955 2955 2951 2947 2944 2940